Location: Meriden
(44.0740°N, 93.3870°W)
Time: 01:18:29
(UTC-05:00)

Amateur Radio Satellites - All Passes

Search period start: 26 June 2016 00:48
Search period end: 27 June 2016 00:48
Location: Meriden, 44.0740°N, 93.3870°W

Satellite Date Start Highest point End Downlink Frequencies (MHz)
Time Altitude Azimuth
AISAT 26 Jun 00:53:10 00:56:59 28° 264° (W) 01:00:49 437.250
50 SAT 26 Jun 00:59:37 01:02:16 18° 267° (W) 01:04:57 437.505
TIGRISAT 26 Jun 01:05:40 01:08:41 18° 297° (WNW) 01:11:44 435.000
UNISAT 6 26 Jun 01:10:02 01:12:42 15° 298° (WNW) 01:15:23 437.425
UKube-1 26 Jun 01:10:11 01:13:58 29° 263° (W) 01:17:46 .
TISAT 1 26 Jun 01:13:17 01:17:20 53° 73° (ENE) 01:21:25 437.305
SPROUT 26 Jun 01:17:32 01:21:28 36° 263° (W) 01:25:24 437.525
DX 1 26 Jun 01:25:17 01:28:14 18° 267° (W) 01:31:11 434.975-435.025
SO-50 26 Jun 01:29:13 01:33:52 57° 51° (NE) 01:38:21 436.795
SWISSCUBE 26 Jun 01:48:26 01:52:36 30° 67° (ENE) 01:56:47 437.505
AO-85 26 Jun 01:55:54 01:56:54 10° 336° (NNW) 01:57:54 145.980
BUGSAT 1 26 Jun 01:56:33 02:00:28 46° 288° (WNW) 02:04:24 437.445
Cosmos 2504 26 Jun 01:56:43 02:05:39 71° 79° (ENE) 02:14:17 435.465 / 435.565
Cosmos 2491 26 Jun 01:57:41 02:06:30 85° 278° (W) 02:15:18 435.465 / 435.565
JAS-2 26 Jun 01:58:13 02:04:04 72° 102° (ESE) 02:09:22 435.910
NANOSAT C BR1 26 Jun 02:01:52 02:04:59 20° 295° (WNW) 02:08:06 145.865
QB50P1 26 Jun 02:03:09 02:06:09 19° 295° (WNW) 02:09:09 145.935-145.965
PCSat 26 Jun 02:03:21 02:05:54 13° 103° (ESE) 02:08:27 145.827
POPSAT HIP 1 26 Jun 02:06:08 02:09:03 18° 296° (WNW) 02:11:57 437.405
ITUPSAT 1 26 Jun 02:12:36 02:17:10 45° 70° (ENE) 02:21:45 437.325
BEESAT 26 Jun 02:13:35 02:18:10 47° 70° (ENE) 02:22:46 436.000
Gurwin Techsat 1B 26 Jun 02:14:49 02:18:26 18° 91° (E) 02:22:00 435.225
QB50P2 26 Jun 02:18:22 02:20:26 13° 299° (WNW) 02:22:30 145.880/145.840
POLYITAN 1 26 Jun 02:21:02 02:23:02 13° 299° (WNW) 02:25:04 437.675
Oscar 19 26 Jun 02:21:19 02:26:14 45° 99° (E) 02:31:07 437.125/150
DUCHIFAT 1 26 Jun 02:24:52 02:26:53 13° 299° (WNW) 02:28:54 145.980
ITAMSAT 1 26 Jun 02:41:02 02:41:17 10° 87° (E) 02:41:33 435.822/435.867
YUBILEINY 26 Jun 02:46:13 02:52:41 24° 281° (W) 02:59:10 435.215
TISAT 1 26 Jun 02:51:08 02:53:20 14° 269° (W) 02:55:30 437.305
SO-50 26 Jun 03:10:43 03:13:53 18° 250° (WSW) 03:16:59 436.795
MOZHAYETS 4 26 Jun 03:20:09 03:23:55 25° 66° (ENE) 03:27:42
SWISSCUBE 26 Jun 03:26:04 03:30:20 32° 264° (W) 03:34:37 437.505
BEESAT 3 26 Jun 03:33:54 03:37:30 36° 117° (ESE) 03:41:08 437.485
O/OREOS (USA 219) 26 Jun 03:38:34 03:42:53 47° 108° (ESE) 03:47:12 437.305
AIST 1 26 Jun 03:42:20 03:43:20 11° 65° (ENE) 03:44:18
PCSat 26 Jun 03:43:04 03:48:30 88° 299° (WNW) 03:53:59 145.827
JAS-2 26 Jun 03:44:36 03:48:25 18° 304° (WNW) 03:52:00 435.910
KKS-1 26 Jun 03:50:46 03:55:06 56° 72° (ENE) 03:59:26 437.445
Cosmos 2504 26 Jun 03:51:10 03:58:13 28° 280° (W) 04:05:08 435.465 / 435.565
ITUPSAT 1 26 Jun 03:51:35 03:55:12 21° 267° (W) 03:58:52 437.325
BEESAT 26 Jun 03:52:41 03:56:11 20° 267° (W) 03:59:43 436.000
Gurwin Techsat 1B 26 Jun 03:53:32 03:58:48 62° 288° (WNW) 04:04:03 435.225
Cosmos 2491 26 Jun 03:58:50 04:04:47 20° 301° (WNW) 04:10:45 435.465 / 435.565
Oscar 19 26 Jun 04:01:11 04:05:18 25° 296° (WNW) 04:09:24 437.125/150
BEESAT 2 26 Jun 04:05:39 04:09:25 44° 119° (ESE) 04:13:14 435.950
ITAMSAT 1 26 Jun 04:16:17 04:21:33 81° 104° (ESE) 04:26:47 435.822/435.867
STARS 26 Jun 04:30:56 04:35:17 77° 74° (ENE) 04:39:39 437.465
CUBESAT XI-V 26 Jun 04:40:02 04:43:33 21° 64° (ENE) 04:47:05 437.345
AO-7 26 Jun 04:45:19 04:53:32 55° 102° (ESE) 05:01:40 29.400- 29.500
GONETS M04 26 Jun 04:49:23 04:55:57 23° 62° (ENE) 05:02:29
Cosmos 2499 26 Jun 04:50:24 04:55:24 16° 55° (NE) 05:00:18 435.465 / 435.565
MOZHAYETS 4 26 Jun 04:56:38 05:00:53 37° 263° (W) 05:05:12
HORYU 2 26 Jun 05:06:50 05:09:41 16° 92° (E) 05:12:32 437.375
BEESAT 3 26 Jun 05:11:59 05:15:16 25° 316° (NW) 05:18:35 437.485
AIST 1 26 Jun 05:17:14 05:21:29 74° 265° (W) 05:25:43
O/OREOS (USA 219) 26 Jun 05:19:09 05:22:32 20° 306° (NW) 05:25:55 437.305
AO-85 26 Jun 05:21:15 05:22:54 12° 26° (NNE) 05:24:30 145.980
PCSat 26 Jun 05:28:56 05:32:41 19° 321° (NW) 05:36:28 145.827
KKS-1 26 Jun 05:29:31 05:32:01 15° 269° (W) 05:34:31 437.445
BEESAT 2 26 Jun 05:44:19 05:47:27 22° 317° (NW) 05:50:37 435.950
ITAMSAT 1 26 Jun 05:57:21 06:00:21 16° 302° (WNW) 06:03:19 435.822/435.867
AIST 2 26 Jun 06:01:17 06:05:09 41° 118° (ESE) 06:09:04 435.215
STARS 26 Jun 06:11:24 06:12:10 10° 271° (W) 06:12:56 437.465
CUBESAT XI-V 26 Jun 06:16:07 06:20:38 46° 261° (W) 06:25:10 437.345
STRAND 1 26 Jun 06:28:41 06:32:39 23° 63° (ENE) 06:36:38 437.568
CUTE-I 26 Jun 06:36:28 06:40:33 21° 92° (E) 06:44:36 437.470
AO-7 26 Jun 06:38:29 06:46:02 39° 302° (WNW) 06:53:32 29.400- 29.500
Cosmos 2499 26 Jun 06:41:37 06:50:29 68° 79° (ENE) 06:58:50 435.465 / 435.565
HORYU 2 26 Jun 06:42:10 06:46:33 52° 288° (WNW) 06:50:54 437.375
GOMX 1 26 Jun 06:43:19 06:45:08 12° 90° (E) 06:46:57 467.674
GONETS M04 26 Jun 06:45:10 06:53:55 84° 265° (W) 07:02:40
AO-85 26 Jun 07:00:07 07:04:37 48° 49° (NE) 07:08:43 145.980
NOAA 18 26 Jun 07:11:54 07:17:15 47° 100° (E) 07:22:34 137.9125
NOAA 15 26 Jun 07:13:18 07:18:31 61° 102° (ESE) 07:23:42 137.62
PRISM 26 Jun 07:24:50 07:25:31 10° 59° (ENE) 07:26:13 437.425
BRITE-PL 26 Jun 07:31:42 07:35:53 85° 288° (WNW) 07:40:03 437.365/2234.400
Cubesat XI-IV 26 Jun 07:40:13 07:45:39 77° 104° (ESE) 07:51:01 437.490
AIST 2 26 Jun 07:40:23 07:43:47 24° 317° (NW) 07:47:13 435.215
LilacSat-2 26 Jun 07:46:08 07:50:01 75° 284° (WNW) 07:53:54 437.200
DANDE 26 Jun 07:47:25 07:54:00 27° 85° (E) 08:00:19 436.750
CUSAT 1 26 Jun 07:49:53 07:57:20 47° 93° (E) 08:03:48 437.405
DOVE 4 26 Jun 07:55:57 07:59:54 35° 97° (E) 08:03:59 437.250
CUTE 1.7 + AOD 2 26 Jun 08:03:01 08:03:49 10° 88° (E) 08:04:37 437.475
STRAND 1 26 Jun 08:06:31 08:11:29 50° 260° (W) 08:16:31 437.568
CUTE-I 26 Jun 08:15:40 08:20:55 54° 290° (WNW) 08:26:08 437.470
GOMX 1 26 Jun 08:19:31 08:23:37 58° 286° (WNW) 08:27:49 467.674
Cosmos 2499 26 Jun 08:35:45 08:42:49 28° 279° (W) 08:49:38 435.465 / 435.565
AO-7 26 Jun 08:35:51 08:36:26 10° 325° (NW) 08:37:01 29.400- 29.500
AO-85 26 Jun 08:41:27 08:44:38 20° 250° (WSW) 08:47:39 145.980
GONETS M04 26 Jun 08:44:10 08:49:21 18° 284° (WNW) 08:54:33
PHONESAT 2.4 26 Jun 08:44:40 08:47:00 20° 159° (SSE) 08:49:21 2401.200-2431.200
NOAA 18 26 Jun 08:53:03 08:57:39 27° 297° (WNW) 09:02:14 137.9125
NOAA 15 26 Jun 08:54:06 08:57:50 20° 299° (WNW) 09:01:32 137.62
PRISM 26 Jun 08:56:00 09:00:11 85° 260° (W) 09:04:22 437.425
AAUSAT CUBESAT 2 26 Jun 08:57:24 09:00:09 17° 91° (E) 09:02:54 437.432
HO-68 26 Jun 08:59:41 09:06:39 49° 100° (E) 09:13:34 435.675
CINEMA 3 26 Jun 09:11:18 09:15:46 68° 101° (ESE) 09:20:26 145.822/145.860
CANX-2 26 Jun 09:15:17 09:19:37 76° 102° (ESE) 09:23:53 2200.000
ISS 26 Jun 09:19:41 09:21:20 13° 132° (SE) 09:22:58 145.825
Cubesat XI-IV 26 Jun 09:21:44 09:25:04 17° 301° (WNW) 09:28:25 437.490
CUBEBUG 2 26 Jun 09:26:58 09:31:05 32° 96° (E) 09:35:16 437.445
DANDE 26 Jun 09:27:48 09:36:14 76° 282° (WNW) 09:44:11 436.750
COMPASS 1 26 Jun 09:27:48 09:31:51 45° 98° (E) 09:35:52 437.405
CUSAT 1 26 Jun 09:32:17 09:39:28 39° 288° (WNW) 09:45:43 437.405
DOVE 4 26 Jun 09:34:08 09:37:27 23° 293° (WNW) 09:40:53 437.250
CUTE 1.7 + AOD 2 26 Jun 09:35:52 09:40:11 74° 284° (WNW) 09:44:26 437.475
ANTELSAT 26 Jun 09:37:00 09:39:59 19° 64° (ENE) 09:43:01 437.575/2403.000
M-CUBED/EXP-1 PRIME 26 Jun 09:38:05 09:41:07 22° 101° (ESE) 09:44:19 437.505
SEEDS 26 Jun 09:44:50 09:49:05 82° 286° (WNW) 09:53:19 437.485
ZACube-1 26 Jun 10:05:06 10:09:18 37° 97° (E) 10:13:33 437.345
Cosmos 2491 26 Jun 10:13:22 10:15:32 11° 50° (NE) 10:17:43 435.465 / 435.565
UWE-3 26 Jun 10:19:48 10:24:22 79° 101° (ESE) 10:29:01 435.000/436.395/437.385
Oscar 11 26 Jun 10:20:16 10:24:35 55° 100° (E) 10:28:50 145.826/435.025
PHONESAT 2.4 26 Jun 10:20:18 10:23:14 40° 175° (S) 10:26:09 2401.200-2431.200
FUNcube-1 26 Jun 10:24:02 10:28:29 55° 100° (E) 10:32:57 145.935
TIGRISAT 26 Jun 10:27:58 10:32:08 57° 73° (ENE) 10:36:26 435.000
AAUSAT CUBESAT 2 26 Jun 10:31:53 10:35:52 43° 289° (WNW) 10:39:48 437.432
UNISAT 6 26 Jun 10:32:06 10:36:21 67° 74° (ENE) 10:40:43 437.425
AUBIESAT-1 26 Jun 10:34:54 10:38:44 81° 106° (ESE) 10:42:52 437.475
PCSat 26 Jun 10:46:57 10:50:58 20° 40° (NE) 10:54:56 145.827
HO-68 26 Jun 10:47:44 10:54:10 36° 299° (WNW) 11:00:34 435.675
CINEMA 3 26 Jun 10:50:04 10:52:26 14° 298° (WNW) 10:54:51 145.822/145.860
CANX-2 26 Jun 10:53:14 10:54:51 12° 299° (WNW) 10:56:28 2200.000
ISS 26 Jun 10:54:05 10:57:21 85° 333° (NNW) 11:00:37 145.825
CUBEBUG 2 26 Jun 11:03:44 11:07:36 28° 292° (WNW) 11:11:34 437.445
COMPASS 1 26 Jun 11:04:16 11:07:05 18° 296° (WNW) 11:09:52 437.405
DELFI C3 26 Jun 11:05:26 11:09:28 82° 102° (ESE) 11:13:26 145.870
ANTELSAT 26 Jun 11:12:15 11:16:22 45° 261° (W) 11:20:35 437.575/2403.000
M-CUBED/EXP-1 PRIME 26 Jun 11:12:20 11:15:41 31° 295° (WNW) 11:19:16 437.505
BUGSAT 1 26 Jun 11:14:19 11:16:24 14° 62° (ENE) 11:18:28 437.445
DANDE 26 Jun 11:14:38 11:20:12 19° 300° (WNW) 11:25:30 436.750
NANOSAT C BR1 26 Jun 11:19:01 11:22:49 35° 70° (ENE) 11:26:38 145.865
QB50P1 26 Jun 11:20:23 11:24:15 38° 70° (ENE) 11:28:10 145.935-145.965
POPSAT HIP 1 26 Jun 11:23:18 11:27:13 40° 70° (ENE) 11:31:09 437.405
QB50P2 26 Jun 11:34:42 11:38:49 58° 73° (ENE) 11:42:58 145.880/145.840
POLYITAN 1 26 Jun 11:37:19 11:41:26 59° 73° (ENE) 11:45:35 437.675
DUCHIFAT 1 26 Jun 11:40:33 11:44:37 56° 73° (ENE) 11:48:43 145.980
HUMSAT D 26 Jun 11:41:04 11:45:25 88° 280° (W) 11:49:43 437.325/437.525
ZACube-1 26 Jun 11:41:47 11:45:24 24° 294° (WNW) 11:49:04 437.345
BEESAT 3 26 Jun 11:49:35 11:53:16 36° 49° (NE) 11:56:56 437.485
RS-15 26 Jun 11:55:25 12:05:35 40° 107° (ESE) 12:16:14 29.354- 29.394
PHONESAT 2.4 26 Jun 11:56:45 11:59:34 33° 191° (SSW) 12:02:23 2401.200-2431.200
Oscar 11 26 Jun 11:57:36 12:00:16 16° 297° (WNW) 12:02:55 145.826/435.025
UWE-3 26 Jun 11:58:11 12:00:15 13° 299° (WNW) 12:02:18 435.000/436.395/437.385
YUBILEINY 26 Jun 11:58:16 12:03:31 18° 75° (ENE) 12:08:47 435.215
CUBEBUG 1 26 Jun 12:00:16 12:03:14 18° 92° (E) 12:06:10 437.445
FUNcube-1 26 Jun 12:01:22 12:04:19 17° 296° (WNW) 12:07:17 145.935
VELOX 1 26 Jun 12:01:34 12:04:27 17° 92° (E) 12:07:19 145.980
Oscar 19 26 Jun 12:04:35 12:06:10 11° 56° (NE) 12:07:45 437.125/150
Cosmos 2491 26 Jun 12:06:22 12:14:52 53° 75° (ENE) 12:23:19 435.465 / 435.565
TIGRISAT 26 Jun 12:07:01 12:09:14 14° 270° (W) 12:11:30 435.000
O/OREOS (USA 219) 26 Jun 12:08:47 12:11:28 15° 50° (NE) 12:14:09 437.305
JAS-2 26 Jun 12:09:53 12:16:59 43° 67° (ENE) 12:23:31 435.910
AUBIESAT-1 26 Jun 12:11:58 12:12:46 11° 303° (WNW) 12:13:33 437.475
UNISAT 6 26 Jun 12:12:00 12:13:35 12° 272° (W) 12:15:10 437.425
BEESAT 2 26 Jun 12:22:13 12:26:04 43° 50° (NE) 12:29:52 435.950
50 SAT 26 Jun 12:26:09 12:29:30 31° 97° (E) 12:32:49 437.505
ESTCUBE 1 26 Jun 12:26:19 12:30:42 49° 99° (E) 12:35:04 437.505/2401.250
PCSat 26 Jun 12:29:35 12:35:02 82° 241° (WSW) 12:40:27 145.827
ISS 26 Jun 12:31:21 12:34:08 25° 348° (NNW) 12:36:55 145.825
AISAT 26 Jun 12:41:04 12:45:19 46° 99° (E) 12:49:31 437.250
BUGSAT 1 26 Jun 12:47:24 12:51:20 55° 259° (W) 12:55:18 437.445
UKube-1 26 Jun 12:55:13 12:59:15 38° 98° (E) 13:03:16 .
NANOSAT C BR1 26 Jun 12:55:27 12:58:39 21° 266° (W) 13:01:51 145.865
QB50P1 26 Jun 12:57:08 13:00:10 19° 267° (W) 13:03:15 145.935-145.965
POPSAT HIP 1 26 Jun 13:00:14 13:03:10 18° 267° (W) 13:06:07 437.405
SPROUT 26 Jun 13:01:44 13:05:37 32° 97° (E) 13:09:28 437.525
DX 1 26 Jun 13:10:07 13:14:28 70° 103° (ESE) 13:18:46 434.975-435.025
QB50P2 26 Jun 13:13:02 13:15:00 13° 270° (W) 13:16:59 145.880/145.840
POLYITAN 1 26 Jun 13:15:46 13:17:38 13° 270° (W) 13:19:30 437.675
DUCHIFAT 1 26 Jun 13:18:42 13:20:41 13° 270° (W) 13:22:41 145.980
BEESAT 3 26 Jun 13:27:37 13:30:46 23° 246° (WSW) 13:33:53 437.485
PHONESAT 2.4 26 Jun 13:34:19 13:35:39 12° 208° (SSW) 13:37:00 2401.200-2431.200
CUBEBUG 1 26 Jun 13:35:37 13:39:44 44° 289° (WNW) 13:43:50 437.445
VELOX 1 26 Jun 13:36:56 13:41:11 48° 289° (WNW) 13:45:23 145.980
Gurwin Techsat 1B 26 Jun 13:36:57 13:41:40 34° 66° (ENE) 13:46:25 435.225
Oscar 19 26 Jun 13:39:28 13:44:36 76° 75° (ENE) 13:49:46 437.125/150
O/OREOS (USA 219) 26 Jun 13:46:55 13:51:23 69° 249° (WSW) 13:55:50 437.305
YUBILEINY 26 Jun 13:50:13 13:58:55 85° 96° (E) 14:07:44 435.215
JAS-2 26 Jun 13:54:42 14:01:56 43° 263° (W) 14:08:40 435.910
AO-7 26 Jun 13:56:31 14:02:20 22° 48° (NE) 14:08:09 29.400- 29.500
ITAMSAT 1 26 Jun 13:58:09 14:01:56 21° 61° (ENE) 14:05:44 435.822/435.867
50 SAT 26 Jun 14:00:20 14:02:59 19° 294° (WNW) 14:05:37 437.505
BEESAT 2 26 Jun 14:00:44 14:03:36 19° 248° (WSW) 14:06:27 435.950
Cosmos 2491 26 Jun 14:03:43 14:11:22 36° 276° (W) 14:19:01 435.465 / 435.565
ESTCUBE 1 26 Jun 14:04:03 14:07:09 19° 297° (WNW) 14:10:14 437.505/2401.250
RS-15 26 Jun 14:05:55 14:17:21 67° 311° (NW) 14:29:30 29.354- 29.394
ISS 26 Jun 14:08:38 14:11:18 22° 8° (N) 14:13:59 145.825
BEESAT 26 Jun 14:15:10 14:15:57 10° 88° (E) 14:16:43 436.000
PCSat 26 Jun 14:15:48 14:17:32 11° 258° (WSW) 14:19:15 145.827
AISAT 26 Jun 14:18:23 14:21:27 19° 297° (WNW) 14:24:32 437.250
AIST 2 26 Jun 14:21:03 14:25:04 44° 50° (NE) 14:29:03 435.215
TISAT 1 26 Jun 14:31:00 14:35:13 80° 104° (ESE) 14:39:26 437.305
UKube-1 26 Jun 14:31:48 14:35:04 21° 295° (WNW) 14:38:20 .
Cosmos 2504 26 Jun 14:36:03 14:43:50 56° 90° (E) 14:52:12 435.465 / 435.565
SPROUT 26 Jun 14:37:57 14:41:25 24° 293° (WNW) 14:44:52 437.525
DX 1 26 Jun 14:48:04 14:50:06 13° 300° (WNW) 14:52:07 434.975-435.025
Gurwin Techsat 1B 26 Jun 15:16:47 15:21:35 34° 264° (W) 15:26:25 435.225
Oscar 19 26 Jun 15:21:53 15:24:30 14° 271° (W) 15:27:07 437.125/150
SWISSCUBE 26 Jun 15:24:01 15:28:46 58° 101° (E) 15:33:28 437.505
ITAMSAT 1 26 Jun 15:35:50 15:40:58 58° 259° (W) 15:46:08 435.822/435.867
ISS 26 Jun 15:44:59 15:48:13 59° 28° (NNE) 15:51:27 145.825
AO-7 26 Jun 15:45:34 15:53:53 81° 69° (ENE) 16:02:17 29.400- 29.500
SO-50 26 Jun 15:46:59 15:49:20 14° 108° (ESE) 15:51:41 436.795
ITUPSAT 1 26 Jun 15:48:59 15:53:50 89° 117° (ESE) 15:58:38 437.325
BEESAT 26 Jun 15:49:33 15:54:23 88° 291° (WNW) 15:59:11 436.000
YUBILEINY 26 Jun 15:50:25 15:56:54 23° 299° (WNW) 16:03:29 435.215
AIST 2 26 Jun 16:00:12 16:03:16 20° 248° (WSW) 16:06:19 435.215
HORYU 2 26 Jun 16:06:21 16:09:29 19° 63° (ENE) 16:12:38 437.375
TISAT 1 26 Jun 16:09:03 16:10:15 11° 300° (WNW) 16:11:27 437.305
STARS 26 Jun 16:20:42 16:22:33 12° 90° (E) 16:24:24 437.465
RS-15 26 Jun 16:22:31 16:32:41 31° 342° (NNW) 16:43:15 29.354- 29.394
Cosmos 2504 26 Jun 16:30:23 16:37:38 35° 292° (WNW) 16:45:23 435.465 / 435.565
MOZHAYETS 4 26 Jun 16:49:43 16:54:12 46° 99° (E) 16:58:39
NOAA 15 26 Jun 16:57:38 17:00:57 17° 59° (ENE) 17:04:16 137.62
NOAA 18 26 Jun 17:02:02 17:05:17 16° 57° (ENE) 17:08:33 137.9125
SWISSCUBE 26 Jun 17:02:52 17:06:07 18° 298° (WNW) 17:09:20 437.505
BRITE-PL 26 Jun 17:07:14 17:10:17 16° 63° (ENE) 17:13:12 437.365/2234.400
KKS-1 26 Jun 17:16:26 17:20:54 87° 288° (WNW) 17:25:22 437.445
ISS 26 Jun 17:21:55 17:24:25 20° 225° (SW) 17:26:53 145.825
SO-50 26 Jun 17:24:16 17:29:10 84° 305° (NW) 17:34:04 436.795
Cubesat XI-IV 26 Jun 17:25:34 17:29:32 22° 61° (ENE) 17:33:30 437.490
ITUPSAT 1 26 Jun 17:28:57 17:30:56 13° 302° (WNW) 17:32:55 437.325
BEESAT 26 Jun 17:29:38 17:31:26 12° 303° (WNW) 17:33:13 436.000
AO-7 26 Jun 17:41:16 17:47:31 23° 268° (W) 17:53:50 29.400- 29.500
HORYU 2 26 Jun 17:41:28 17:45:43 46° 261° (W) 17:50:01 437.375
AIST 1 26 Jun 17:47:38 17:51:54 59° 94° (E) 17:56:09
GOMX 1 26 Jun 17:52:30 17:55:40 19° 65° (ENE) 17:58:44 467.674
GONETS M04 26 Jun 17:54:00 18:00:23 23° 79° (E) 18:06:44
STARS 26 Jun 17:54:59 17:59:21 67° 287° (WNW) 18:03:43 437.465
CUTE-I 26 Jun 17:59:25 18:04:22 40° 68° (ENE) 18:09:22 437.470
CUBESAT XI-V 26 Jun 18:11:05 18:15:27 39° 97° (E) 18:19:45 437.345
CUSAT 1 26 Jun 18:26:09 18:29:02 18° 63° (ENE) 18:31:28 437.405
MOZHAYETS 4 26 Jun 18:27:37 18:31:03 21° 296° (WNW) 18:34:28
DANDE 26 Jun 18:28:10 18:30:27 13° 54° (NE) 18:32:31 436.750
LilacSat-2 26 Jun 18:29:16 18:32:59 63° 75° (ENE) 18:36:45 437.200
NOAA 15 26 Jun 18:34:50 18:40:08 74° 257° (WSW) 18:45:26 137.62
NOAA 18 26 Jun 18:39:46 18:45:14 83° 255° (WSW) 18:50:46 137.9125
RS-15 26 Jun 18:39:47 18:50:10 31° 17° (NNE) 19:00:42 29.354- 29.394
BRITE-PL 26 Jun 18:43:15 18:48:22 66° 259° (WSW) 18:53:06 437.365/2234.400
KKS-1 26 Jun 18:55:57 18:56:45 10° 302° (WNW) 18:57:33 437.445
CUTE 1.7 + AOD 2 26 Jun 18:58:01 18:58:36 10° 59° (ENE) 18:59:12 437.475
DOVE 4 26 Jun 19:03:02 19:07:08 41° 72° (ENE) 19:11:06 437.250
Cubesat XI-IV 26 Jun 19:03:55 19:09:10 58° 259° (W) 19:14:29 437.490
SO-50 26 Jun 19:07:07 19:10:24 18° 325° (NW) 19:13:39 436.795
Cosmos 2499 26 Jun 19:18:52 19:26:48 53° 89° (E) 19:35:12 435.465 / 435.565
AIST 1 26 Jun 19:27:47 19:29:55 13° 293° (WNW) 19:32:03
GOMX 1 26 Jun 19:28:59 19:33:30 47° 261° (W) 19:37:47 467.674
HO-68 26 Jun 19:29:47 19:36:25 43° 63° (ENE) 19:43:06 435.675
CUTE-I 26 Jun 19:39:57 19:44:31 28° 265° (W) 19:49:08 437.470
GONETS M04 26 Jun 19:47:29 19:56:12 78° 280° (W) 20:04:57
CUBESAT XI-V 26 Jun 19:48:56 19:52:36 24° 295° (WNW) 19:56:15 437.345
AAUSAT CUBESAT 2 26 Jun 19:49:38 19:52:02 15° 63° (ENE) 19:54:26 437.432
AUBIESAT-1 26 Jun 19:52:18 19:52:23 10° 56° (NE) 19:52:28 437.475
CUSAT 1 26 Jun 20:07:58 20:11:11 24° 272° (W) 20:13:49 437.405
CANX-2 26 Jun 20:09:04 20:13:18 63° 74° (ENE) 20:17:34 2200.000
DANDE 26 Jun 20:09:05 20:14:34 79° 262° (W) 20:18:33 436.750
CINEMA 3 26 Jun 20:14:36 20:18:44 71° 74° (ENE) 20:22:53 145.822/145.860
STRAND 1 26 Jun 20:15:19 20:20:21 50° 100° (E) 20:25:20 437.568
COMPASS 1 26 Jun 20:19:46 20:23:39 37° 70° (ENE) 20:27:33 437.405
NOAA 18 26 Jun 20:25:18 20:26:44 11° 273° (W) 20:28:10 137.9125
M-CUBED/EXP-1 PRIME 26 Jun 20:26:37 20:29:32 30° 65° (ENE) 20:32:27 437.505
CUBEBUG 2 26 Jun 20:26:52 20:30:29 29° 68° (ENE) 20:34:11 437.445
CUTE 1.7 + AOD 2 26 Jun 20:29:27 20:33:44 89° 244° (WSW) 20:38:04 437.475
SEEDS 26 Jun 20:37:28 20:41:42 82° 76° (ENE) 20:45:59 437.485
PRISM 26 Jun 20:38:20 20:39:41 11° 90° (E) 20:41:00 437.425
DOVE 4 26 Jun 20:42:03 20:45:01 18° 267° (W) 20:47:58 437.250
RS-15 26 Jun 20:53:31 21:05:46 64° 47° (NE) 21:17:57 29.354- 29.394
ZACube-1 26 Jun 21:02:29 21:06:15 33° 69° (ENE) 21:10:04 437.345
Cosmos 2499 26 Jun 21:12:37 21:20:13 38° 291° (WNW) 21:28:15 435.465 / 435.565
Oscar 11 26 Jun 21:16:08 21:20:20 50° 72° (ENE) 21:24:33 145.826/435.025
AO-85 26 Jun 21:17:19 21:20:02 14° 107° (ESE) 21:22:43 145.980
HO-68 26 Jun 21:17:29 21:24:08 41° 262° (W) 21:30:51 435.675
UWE-3 26 Jun 21:18:11 21:22:20 73° 75° (ENE) 21:26:37 435.000/436.395/437.385
FUNcube-1 26 Jun 21:20:56 21:24:57 48° 72° (ENE) 21:29:05 145.935
AAUSAT CUBESAT 2 26 Jun 21:22:58 21:27:04 55° 260° (W) 21:31:14 437.432
AUBIESAT-1 26 Jun 21:23:12 21:26:26 55° 253° (WSW) 21:29:44 437.475
CANX-2 26 Jun 21:47:45 21:49:35 12° 271° (W) 21:51:25 2200.000
GONETS M04 26 Jun 21:49:15 21:54:39 18° 303° (WNW) 22:00:06
DELFI C3 26 Jun 21:52:22 21:56:19 56° 74° (ENE) 22:00:17 145.870
STRAND 1 26 Jun 21:55:12 21:59:12 23° 297° (WNW) 22:03:11 437.568
COMPASS 1 26 Jun 21:56:10 21:59:19 20° 267° (W) 22:02:30 437.405
M-CUBED/EXP-1 PRIME 26 Jun 22:02:21 22:04:14 14° 261° (W) 22:06:08 437.505
CUBEBUG 2 26 Jun 22:03:41 22:07:08 25° 266° (W) 22:10:39 437.445
PRISM 26 Jun 22:11:21 22:15:25 63° 286° (WNW) 22:19:26 437.425
TIGRISAT 26 Jun 22:19:54 22:21:28 11° 88° (E) 22:23:03 435.000
UNISAT 6 26 Jun 22:23:38 22:25:59 14° 90° (E) 22:28:20 437.425
HUMSAT D 26 Jun 22:33:23 22:37:31 76° 75° (ENE) 22:41:45 437.325/437.525
ZACube-1 26 Jun 22:39:15 22:42:36 23° 267° (W) 22:46:01 437.345
Oscar 11 26 Jun 22:54:05 22:56:45 16° 269° (W) 22:59:26 145.826/435.025
AO-85 26 Jun 22:54:25 22:59:52 89° 132° (SE) 23:05:08 145.980
CUBEBUG 1 26 Jun 22:57:49 23:00:54 19° 64° (ENE) 23:03:59 437.445
FUNcube-1 26 Jun 22:58:58 23:01:31 16° 270° (W) 23:04:05 145.935
UWE-3 26 Jun 22:58:59 22:59:22 10° 273° (W) 22:59:44 435.000/436.395/437.385
VELOX 1 26 Jun 23:00:23 23:03:31 19° 64° (ENE) 23:06:40 145.980
ANTELSAT 26 Jun 23:02:05 23:06:16 33° 96° (E) 23:10:30 437.575/2403.000
50 SAT 26 Jun 23:05:56 23:08:38 19° 66° (ENE) 23:11:21 437.505
RS-15 26 Jun 23:06:35 23:17:56 46° 251° (WSW) 23:29:11 29.354- 29.394
Cosmos 2491 26 Jun 23:22:36 23:22:45 10° 70° (ENE) 23:22:54 435.465 / 435.565
ESTCUBE 1 26 Jun 23:26:56 23:31:22 54° 72° (ENE) 23:35:49 437.505/2401.250
DELFI C3 26 Jun 23:29:46 23:31:31 12° 270° (W) 23:33:17 145.870
AISAT 26 Jun 23:39:38 23:43:53 49° 71° (ENE) 23:48:08 437.250
UKube-1 26 Jun 23:50:59 23:55:00 39° 70° (ENE) 23:59:02 .
TIGRISAT 26 Jun 23:54:03 23:58:40 79° 285° (WNW) 00:03:22 435.000
SPROUT 26 Jun 23:56:44 00:00:27 30° 68° (ENE) 00:04:11 437.525
UNISAT 6 26 Jun 23:58:31 00:03:08 67° 286° (WNW) 00:07:46 437.425
YUBILEINY 26 Jun 23:58:39 00:07:06 46° 73° (ENE) 00:15:30 435.215
DX 1 27 Jun 00:06:44 00:11:03 73° 75° (ENE) 00:15:24 434.975-435.025
SO-50 27 Jun 00:14:45 00:18:27 22° 39° (NE) 00:22:03 436.795
Cosmos 2504 27 Jun 00:27:08 00:34:07 25° 62° (ENE) 00:40:56 435.465 / 435.565
BUGSAT 1 27 Jun 00:28:20 00:31:10 18° 93° (E) 00:34:00 437.445
CUBEBUG 1 27 Jun 00:32:42 00:36:52 44° 261° (W) 00:41:04 437.445
VELOX 1 27 Jun 00:35:27 00:39:40 45° 261° (W) 00:43:55 145.980
NANOSAT C BR1 27 Jun 00:37:02 00:41:12 53° 100° (E) 00:45:21 145.865
AO-85 27 Jun 00:37:03 00:41:00 20° 322° (NW) 00:44:50 145.980
50 SAT 27 Jun 00:38:47 00:42:07 31° 263° (W) 00:45:29 437.505
QB50P1 27 Jun 00:38:50 00:43:03 59° 101° (E) 00:47:15 145.935-145.965
ANTELSAT 27 Jun 00:38:56 00:42:52 28° 293° (WNW) 00:46:51 437.575/2403.000
